Last Changes

Field Name Country Update c ID (Reg) Link Typ
Holmen Hadeland Modellflyklubb no 02.06.2020, 21:11:34 265 NO5740 www airfield
Untervaz MFGU ch 02.06.2020, 21:10:12 505 CH10789 www airfield
Cournon-d'Auvergne Les Griffons fr 02.06.2020, 21:08:54 190 FR5811 www airfield
Rønne Modelflyveklub dk 02.06.2020, 21:04:05 205 DK7427 www airfield
Heimenhofen Modellflug ch 02.06.2020, 20:59:29 271 CH11399 www airfield
Hibaldstow HMAC Broughton uk 02.06.2020, 20:58:38 115 UK5182 www airfield
Hibaldstow HMAC 1 uk 02.06.2020, 20:58:09 122 UK5181 www airfield
Chozas de Abajo Alas del Páramo es 02.06.2020, 20:55:09 303 ES7524 www airfield
Hamilton Model Aero Club au 02.06.2020, 20:52:09 178 AU6571 airfield
Sterling Miniature Aircraft Association us 02.06.2020, 20:49:04 401 US1851 - 3007 www airfield
Sudbury GreaterSudburyModelers ca 02.06.2020, 13:52:06 360 CA7077 airfield
Post Falls CAMSCDA closed us 02.06.2020, 13:29:33 421 US2118 - 1027 www other
Sandberg Kissinger Hütte Slope N NO de 02.06.2020, 13:22:04 10 DE9683 slope
Regnitzlosau Aeroclub-Hof de 02.06.2020, 10:49:39 400 DE1087 www airfield
Breitenfurt MFK Westhang at 02.06.2020, 10:48:41 410 AT4124 www slope
Breitenfurt MFK Süd/Nordhang at 02.06.2020, 10:48:02 727 AT4123 www slope
Rockhampton RMAC au 02.06.2020, 10:47:05 196 AU6677 www airfield
Sandebeck Aerosport / MfG-Bellenberg de 02.06.2020, 10:45:07 471 DE1162 airfield
Durlangen Modellfliegergruppe de 01.06.2020, 23:25:32 262 DE317 www airfield
Welzheim MFG Segelflugplatz de 01.06.2020, 23:25:01 523 DE12315 www airfield
Wulfen/Fehmarn Hang S de 01.06.2020, 22:25:03 962 DE1479 slope
Welland Golden Horseshoe Jet Club ca 01.06.2020, 22:24:15 465 CA11194 www airfield
Dornhan MFG de 01.06.2020, 21:01:53 286 DE301 www airfield
Barsinghausen MFG de 01.06.2020, 21:00:55 707 DE112 www airfield
Neosho 4 State RC Club us 01.06.2020, 21:00:07 211 US2666 - 4180 www airfield
Jessen MFC de 01.06.2020, 17:17:23 352 DE10600 www airfield
Aberdeen Area Modelaires us 01.06.2020, 08:57:49 1862 US10718 - 1207 www airfield
Pana Christian County Prop Busters us 01.06.2020, 08:56:27 174 US2208 - 2122 www airfield
Aachen MSC-Phönix de 01.06.2020, 06:58:00 3308 DE3 airfield
Dahlenburg MFC Indoor de 01.06.2020, 06:55:53 342 DE10145 www indoor
Sippersfeld MFSV de 01.06.2020, 06:54:27 455 DE1233 www airfield
Waltrop Lohburg LMFC de 01.06.2020, 06:47:13 956 DE1389 www airfield
Bernes-sur-Oise Club-CMB fr 31.05.2020, 19:33:40 575 FR7874 www airfield
Grundlsee IGE-Salzkammergut Wasserflug at 31.05.2020, 19:32:31 212 AT4170 www float
Mühlreith IGE-Salzkammergut at 31.05.2020, 19:31:06 177 AT4232 www airfield
Neustadt (Hessen) VFM-Condor de 31.05.2020, 08:57:08 324 DE932 www airfield
Merstham EDMFC uk 31.05.2020, 08:56:06 175 UK5303 www airfield
Benton Saline County RC Aircraft us 31.05.2020, 08:55:11 514 US1568 - 5161 www airfield
Concordia Aeromodelista Saint Exupery ar 31.05.2020, 08:54:06 104 AR10073 airfield
Lübeck FMC de 30.05.2020, 20:08:34 452 DE809 www airfield
Timaru SCMAC temporary nz 30.05.2020, 20:06:25 393 NZ8708 www airfield
Chartres Club d'Aéromodélisme fr 30.05.2020, 10:41:49 335 FR7922 www airfield
Cilavegna Vola con Noi it 30.05.2020, 10:41:09 235 IT4446 www airfield
Boise BARKS us 30.05.2020, 09:31:43 353 US2116 - 236 www airfield
Puan Aeroclub ar 30.05.2020, 09:28:25 145 AR11309 airfield
Braunau Modellflugverein Fürstenland ch 30.05.2020, 09:26:34 381 CH3913 www airfield
Mévouillon Club Modéliste Hautes Baronnies fr 30.05.2020, 09:25:40 156 FR11557 slope
Ballivor RoyalCountyFlyers ie 29.05.2020, 20:12:49 578 IE8469 www airfield
Ávila CDA Huy Huy Huy es 29.05.2020, 20:11:52 802 ES7489 www airfield
Heyda Stausee MAC-Arnstadt de 29.05.2020, 20:09:08 388 DE10801 www float